Meteo Giornale » Osservazioni meteo Stati Uniti (USA) » Wrangell
ore: 10:56 - Osservazioni Meteo Wrangell
Lat. 56° 29' N Lon. 132° 22' W Alt. 13 metri s.l.m.
13 °C
Molto Nuvoloso
Temp. 24 Ore
12 °C
13 °C
Est/Sud-Est
9.3 Km/h
Dew point 11 °C
Umidità 87 %
Visibilità 10 Km
Il sole sorge alle ore 05:53
Il sole tramonta alle ore 19:44
| Data e Ora | Cielo e Fenomeni | T °C | DP °C | Um. % | Pres. hPa | Vis. km | Vento km/h | |
|---|---|---|---|---|---|---|---|---|
| Oggi h: 10:56 | Molto Nuvoloso | 13 | 11 | 87 | 997 | 10 | E/SE 9.3 | |
| Oggi h: 09:56 | Pioggia | 12 | 11 | 93 | 998 | 10 | E 14.8 | |
| Oggi h: 08:56 | Pioggia | 12 | 11 | 93 | 998 | 10 | E 13 | |
| Oggi h: 07:56 | Pioggia | 12 | 10 | 87 | 998 | 10 | E/SE 13 | |
| Oggi h: 06:56 | Coperto | 12 | 10 | 87 | 998 | 10 | E 16.7 | |
| Oggi h: 05:56 | Pioggia | 12 | 11 | 93 | 999 | 10 | E 9.3 | |
| Oggi h: 04:56 | Pioggia | 12 | 10 | 87 | 999 | 10 | E 11.1 | |
| Oggi h: 03:56 | Coperto | 12 | 11 | 93 | 1000 | 10 | E 13 | |
| Oggi h: 02:56 | Pioggia | 12 | 11 | 93 | 1000 | 10 | SE 13 | |
| Oggi h: 02:21 | Pioggia | 12 | 11 | 93 | 1000 | 10 | E/SE 7.4 | |
| Oggi h: 01:56 | Pioggia | 12 | 11 | 93 | 1001 | 10 | E 11.1 | |
| Oggi h: 00:56 | Pioggia | 12 | 11 | 93 | 1001 | 10 | N 11.1 | |
| Ieri h: 23:56 | Coperto | 12 | 11 | 93 | 1001 | 10 | E 13 | |
| Ieri h: 22:56 | Pioggia | 12 | 11 | 93 | 1002 | 10 | E/SE 11.1 | |
| Ieri h: 21:56 | Coperto | 12 | 11 | 93 | 1002 | 10 | E/SE 16.7 | |
| Ieri h: 20:56 | Pioggia | 12 | 11 | 93 | 1003 | 13 | N 5.5 | |
| Ieri h: 19:56 | Pioggia | 12 | 11 | 93 | 1003 | 10 | SE 7.4 | |
| Ieri h: 19:45 | Pioggia | 12 | 12 | 100 | 1003 | 10 | E/SE 11.1 | |
| Ieri h: 18:56 | Pioggia | 12 | 12 | 100 | 1004 | 10 | E 13 | |
| Ieri h: 17:56 | Pioggia | 12 | 12 | 100 | 1004 | 10 | SE 9.3 | |
| Ieri h: 17:29 | Pioggia | 12 | 11 | 93 | 1004 | 13 | N 5.5 | |
| Ieri h: 16:56 | Pioggia Foschia | 12 | 11 | 93 | 1005 | 10 | N 0 | |
| Ieri h: 16:27 | Pioggia | 12 | 11 | 93 | 1005 | 11 | O 11.1 | |
| Ieri h: 15:56 | Pioggia Foschia | 13 | 12 | 93 | 1005 | 10 | N 7.4 | |
| Ieri h: 14:56 | Coperto | 13 | 12 | 93 | 1005 | 10 | E/SE 7.4 | |
| Ieri h: 13:56 | Coperto | 13 | 12 | 93 | 1005 | 14 | E/SE 11.1 | |
| Ieri h: 12:56 | Pioggia | 13 | 12 | 93 | 1006 | 10 | N 0 | |
| Ieri h: 11:56 | Pioggia | 13 | 12 | 93 | 1006 | 10 | E 7.4 | |



